Location: Austin
(30.3000°N, 97.7500°W)
Time: 01:49:46
(UTC-05:00)

Meteor 2-4 Rocket - Pass Details

Date: 11 June 2024
Orbit: 798 x 908 km, 81.2° (Epoch: 21 June)

Event Time Altitude Azimuth Distance (km) Brightness Sun altitude
Rises 21:00:02 0° 177° (S) 3,517 6.6 -5.9°
Reaches altitude 10° 21:02:31 10° 174° (S) 2,581 5.9 -6.3°
Maximum altitude 21:08:21 64° 95° (E) 999 3.9 -7.4°
Drops below altitude 10° 21:14:08 10° 15° (NNE) 2,569 6.5 -8.5°
Sets 21:16:36 0° 12° (NNE) 3,500 7.2 -8.9°
